1484406001.16,43899,7.0,71474.8,-17.97,-28.85,-28.53,0,*6C
1484406002.43,43900,7.0,71470.8,-17.99,-28.91,-28.47,0,*63
1484406003.7,43901,7.0,71472.5,-17.99,-28.79,-28.59,0,*6B
1484406004.94,43902,7.0,71468.0,-17.99,-29.07,-28.59,0,*60
1484406006.18,43903,7.0,71468.5,-17.99,-28.97,-28.47,0,*66
1484406007.42,43904,7.0,71470.3,-17.99,-28.97,-28.43,0,*65
1484406008.69,43905,7.0,71470.5,-17.99,-28.91,-28.43,0,*62
1484406009.99,43906,7.0,71470.8,-18.01,-28.79,-28.25,0,*69
1484406011.24,43907,7.0,71468.8,-18.05,-28.85,-28.37,0,*6C
1484406012.49,43908,7.0,71470.3,-18.05,-28.85,-28.37,0,*63
1484406013.74,43909,7.0,71472.0,-18.05,-28.85,-28.53,0,*60
1484406015.03,43910,7.0,71474.5,-18.01,-28.91,-28.47,0,*6C
1484406016.3,43911,7.0,71476.5,-18.05,-28.97,-28.47,0,*6F
1484406017.56,43912,7.0,71476.0,-18.05,-28.85,-28.31,0,*6E
1484406018.81,43913,7.0,71478.3,-18.05,-28.85,-28.31,0,*6F
1484406020.09,43914,7.0,71472.5,-18.05,-28.79,-28.31,0,*6B
1484406021.34,43915,7.0,71472.8,-18.07,-28.79,-28.37,0,*6E
1484406022.61,43916,7.0,71474.0,-18.07,-28.63,-28.09,0,*6B
1484406023.87,43917,7.0,71474.3,-18.07,-28.53,-27.99,0,*6F
1484406025.09,43918,7.0,71468.5,-18.07,-28.37,-27.93,0,*68
1484406026.32,43919,7.0,71472.3,-18.07,-28.53,-27.93,0,*6B
1484406027.55,43920,7.0,71470.5,-18.07,-28.53,-28.15,0,*60
1484406028.82,43921,7.0,71468.0,-18.07,-28.47,-27.99,0,*6F
1484406030.09,43922,7.0,71470.5,-18.09,-28.53,-28.05,0,*6D
1484406031.35,43923,7.0,71470.3,-18.07,-28.53,-27.99,0,*68
1484406032.62,43924,7.0,71468.3,-18.07,-28.47,-27.99,0,*6A
1484406033.89,43925,7.0,71470.0,-18.07,-28.47,-27.99,0,*6B
1484406035.11,43926,7.0,71470.3,-18.07,-28.31,-27.93,0,*63
1484406036.34,43927,7.0,71468.3,-18.07,-28.37,-27.93,0,*64
1484406037.56,43928,7.0,71470.3,-18.07,-28.31,-27.93,0,*6D
1484406038.83,43929,7.0,71474.5,-18.07,-28.25,-27.83,0,*68
1484406040.08,43930,7.0,71472.5,-18.07,-28.09,-27.67,0,*64
1484406041.33,43931,7.0,71472.5,-18.07,-28.25,-27.77,0,*6A
1484406042.55,43932,7.0,71476.5,-18.07,-28.15,-27.77,0,*6A
1484406043.8,43933,7.0,71474.5,-18.05,-28.15,-27.77,0,*69
1484406045.04,43934,7.0,71476.3,-18.05,-28.15,-27.77,0,*6E
1484406046.29,43935,7.0,71478.8,-18.07,-28.25,-27.67,0,*6F
1484406047.57,43936,7.0,71478.0,-18.07,-28.25,-27.83,0,*66
1484406048.79,43937,7.0,71472.8,-18.07,-28.37,-27.93,0,*65
1484406050.04,43938,7.0,71478.0,-18.07,-28.31,-27.83,0,*6D
1484406051.26,43939,7.0,71476.3,-18.07,-28.37,-27.93,0,*6B
1484406052.51,43940,7.0,71474.5,-18.09,-28.31,-27.89,0,*66
1484406053.76,43941,7.0,71472.5,-18.07,-28.09,-27.77,0,*63
1484406055.01,43942,7.0,71478.0,-18.07,-27.99,-27.67,0,*67
1484406056.28,43943,7.0,71474.3,-18.01,-28.05,-27.67,0,*6A
1484406057.58,43944,7.0,71476.8,-18.05,-28.25,-27.83,0,*61
1484406058.85,43945,7.0,71478.5,-18.05,-28.25,-27.93,0,*61
1484406060.11,43946,7.0,71476.8,-18.05,-28.47,-27.93,0,*66
1484406061.36,43947,7.0,71480.3,-18.05,-28.53,-27.93,0,*62
1484406062.66,43948,7.0,71474.3,-18.01,-28.59,-28.05,0,*63
1484406063.93,43949,7.0,71476.5,-18.05,-28.47,-28.15,0,*68
1484406065.21,43950,7.0,71478.5,-18.05,-28.53,-27.99,0,*6E
1484406066.47,43951,7.0,71474.8,-18.07,-28.47,-28.09,0,*6E
1484406067.7,43952,7.0,71476.0,-18.07,-28.69,-28.15,0,*6C
1484406068.93,43953,7.0,71476.0,-18.07,-28.69,-28.31,0,*6B
1484406070.16,43954,7.0,71478.0,-18.07,-28.85,-28.31,0,*6E
1484406071.41,43955,7.0,71478.3,-18.09,-28.85,-28.37,0,*67
1484406072.64,43956,7.0,71474.0,-18.07,-28.69,-28.31,0,*6E
1484406073.89,43957,7.0,71476.3,-18.07,-28.63,-28.15,0,*63
1484406075.14,43958,7.0,71472.5,-18.09,-28.69,-28.15,0,*68
1484406076.39,43959,7.0,71476.5,-18.07,-28.53,-28.09,0,*63
1484406077.69,43960,7.0,71476.5,-18.09,-28.43,-27.99,0,*60
1484406078.93,43961,7.0,71474.0,-18.07,-28.31,-27.83,0,*61
1484406080.21,43962,7.0,71476.0,-18.09,-28.37,-27.99,0,*61
1484406081.48,43963,7.0,71472.5,-18.07,-28.25,-27.83,0,*66
1484406082.71,43964,7.0,71472.3,-18.07,-28.15,-27.67,0,*68
1484406083.98,43965,7.0,71472.0,-18.09,-28.05,-27.67,0,*66
1484406085.23,43966,7.0,71474.3,-18.09,-28.15,-27.71,0,*63
1484406086.45,43967,7.0,71472.3,-18.07,-28.31,-27.77,0,*6C
1484406087.67,43968,7.0,71468.8,-18.07,-28.37,-27.93,0,*6F
1484406088.92,43969,7.0,71470.5,-18.07,-28.37,-27.99,0,*64
1484406090.19,43970,7.0,71468.0,-18.07,-28.47,-28.09,0,*6D
1484406091.46,43971,7.0,71468.3,-18.07,-28.47,-28.09,0,*6C
1484406092.71,43972,7.0,71468.5,-18.09,-28.69,-28.15,0,*60
1484406093.98,43973,7.0,71470.3,-18.07,-28.75,-28.21,0,*65
1484406095.23,43974,7.0,71470.3,-18.07,-28.69,-28.09,0,*65
1484406096.53,43975,7.0,71468.8,-18.09,-28.59,-28.21,0,*63
1484406097.8,43976,7.0,71466.8,-18.07,-28.47,-27.99,0,*6D
1484406099.08,43977,7.0,71468.0,-18.09,-28.05,-27.89,0,*65
1484406100.32,43978,7.0,71466.3,-18.09,-27.89,-27.55,0,*60
1484406101.58,43979,7.0,71470.0,-18.07,-27.83,-27.45,0,*64
1484406102.85,43980,7.0,71464.8,-18.07,-27.83,-27.61,0,*64
1484406104.12,43981,7.0,71466.5,-18.09,-27.99,-27.67,0,*66
1484406105.37,43982,7.0,71468.0,-18.09,-27.89,-27.67,0,*64
1484406106.62,43983,7.0,71468.8,-18.07,-27.93,-27.61,0,*66
1484406107.87,43984,7.0,71464.3,-18.07,-28.09,-27.67,0,*6B
1484406109.09,43985,7.0,71466.8,-18.07,-28.15,-27.77,0,*66
1484406110.31,43986,7.0,71470.5,-18.07,-28.15,-27.93,0,*6F
1484406111.56,43987,7.0,71464.3,-18.07,-28.15,-27.83,0,*6F
1484406112.81,43988,7.0,71464.3,-18.07,-28.31,-27.99,0,*6D
1484406114.05,43989,7.0,71470.5,-18.05,-28.31,-27.93,0,*64
1484406115.33,43990,7.0,71460.5,-18.05,-28.37,-27.99,0,*60
1484406116.55,43991,7.0,71470.5,-18.07,-28.37,-27.93,0,*69
1484406117.8,43992,7.0,71466.5,-18.07,-28.37,-28.09,0,*66
1484406119.1,43993,7.0,71466.8,-18.05,-28.47,-28.09,0,*62
1484406120.35,43994,7.0,71470.0,-18.05,-28.53,-28.15,0,*6D
1484406121.64,43995,7.0,71470.3,-18.09,-28.75,-28.43,0,*67
1484406122.86,43996,7.0,71470.8,-18.07,-28.69,-28.37,0,*64
1484406124.11,43997,7.0,71472.3,-18.07,-28.69,-28.47,0,*62
1484406125.4,43998,7.0,71472.3,-18.09,-28.75,-28.59,0,*61
1484406126.63,43999,7.0,71474.0,-18.07,-28.69,-28.37,0,*6B
1484406127.9,44000,7.0,71470.3,-18.07,-28.79,-28.47,0,*63
1484406129.2,44001,7.0,71468.5,-18.09,-28.91,-28.59,0,*65
1484406130.45,44002,7.0,71474.8,-18.09,-28.85,-28.69,0,*60
1484406131.72,44003,7.0,71472.5,-18.09,-29.01,-28.69,0,*6C
1484406133.01,44004,7.0,71468.3,-18.09,-28.91,-28.75,0,*6E
1484406134.31,44005,7.0,71474.8,-18.09,-28.91,-28.59,0,*61
1484406135.56,44006,7.0,71472.3,-18.09,-28.85,-28.53,0,*6D
1484406136.83,44007,7.0,71474.0,-18.09,-28.85,-28.43,0,*6D
1484406138.1,44008,7.0,71472.8,-18.09,-28.85,-28.43,0,*62
1484406139.34,44009,7.0,71470.5,-18.09,-28.85,-28.53,0,*62
1484406140.57,44010,7.0,71468.0,-18.11,-28.85,-28.69,0,*6A
1484406141.85,44011,7.0,71468.0,-18.11,-28.91,-28.59,0,*6D
1484406143.1,44012,7.0,71472.5,-18.11,-28.85,-28.59,0,*6B
1484406144.34,44013,7.0,71472.5,-18.11,-28.91,-28.69,0,*6C
1484406145.62,44014,7.0,71474.0,-18.11,-28.91,-28.59,0,*68
1484406146.85,44015,7.0,71468.3,-18.11,-28.85,-28.53,0,*66
1484406148.07,44016,7.0,71474.8,-18.11,-28.85,-28.53,0,*65
1484406149.35,44017,7.0,71468.8,-18.11,-28.91,-28.59,0,*6B
1484406150.63,44018,7.0,71470.8,-18.15,-29.13,-28.79,0,*69
1484406151.92,44019,7.0,71470.0,-18.15,-29.13,-28.79,0,*68
1484406153.17,44020,7.0,71472.5,-18.17,-29.17,-28.79,0,*64
1484406154.46,44021,7.0,71474.5,-18.15,-29.13,-28.79,0,*63
1484406155.73,44022,7.0,71472.3,-18.15,-29.23,-28.91,0,*65
1484406157.01,44023,7.0,71474.3,-18.15,-29.13,-28.79,0,*61
1484406158.28,44024,7.0,71472.8,-18.15,-29.07,-28.91,0,*65
1484406159.52,44025,7.0,71474.3,-18.17,-29.13,-28.85,0,*66
1484406160.76,44026,7.0,71474.3,-18.17,-29.13,-28.85,0,*65
1484406161.97,44027,7.0,71474.0,-18.17,-28.97,-28.69,0,*6B
1484406163.21,44028,7.0,71472.8,-18.19,-28.97,-28.69,0,*6A
1484406164.48,44029,7.0,71474.8,-18.19,-28.97,-28.63,0,*61
1484406165.73,44030,7.0,71470.0,-18.19,-28.85,-28.53,0,*69
1484406167.0,44031,7.0,71470.3,-18.19,-28.79,-28.53,0,*6B
1484406168.22,44032,7.0,71474.0,-18.21,-28.53,-28.15,0,*69
1484406169.49,44033,7.0,71472.5,-18.19,-28.47,-28.15,0,*66
1484406170.76,44034,7.0,71470.0,-18.19,-28.43,-28.15,0,*65
1484406172.01,44035,7.0,71468.0,-18.19,-28.53,-28.15,0,*65
1484406173.27,44036,7.0,71470.3,-18.19,-28.47,-28.15,0,*63
1484406174.52,44037,7.0,71472.0,-18.19,-28.53,-28.15,0,*67
1484406175.77,44038,7.0,71470.3,-18.17,-28.63,-28.31,0,*63
1484406177.03,44039,7.0,71474.0,-18.17,-28.63,-28.43,0,*67
1484406178.27,44040,7.0,71472.5,-18.21,-28.69,-28.43,0,*66
1484406179.53,44041,7.0,71474.3,-18.19,-28.69,-28.43,0,*6C
1484406180.82,44042,7.0,71470.5,-18.19,-28.79,-28.43,0,*6E
1484406182.09,44043,7.0,71474.0,-18.19,-28.85,-28.43,0,*6C
1484406183.39,44044,7.0,71470.0,-18.19,-28.79,-28.43,0,*68
1484406184.68,44045,7.0,71470.3,-18.19,-28.79,-28.43,0,*69
1484406185.93,44046,7.0,71470.0,-18.21,-28.63,-28.31,0,*6F
1484406187.2,44047,7.0,71468.0,-18.19,-28.63,-28.31,0,*65
1484406188.47,44048,7.0,71468.5,-18.19,-28.63,-28.31,0,*6A
1484406189.77,44049,7.0,71466.0,-18.19,-28.63,-28.25,0,*6E
1484406191.02,44050,7.0,71468.3,-18.21,-28.63,-28.31,0,*68
1484406192.29,44051,7.0,71470.3,-18.19,-28.63,-28.15,0,*64
1484406193.54,44052,7.0,71470.8,-18.19,-28.53,-28.15,0,*64
1484406194.76,44053,7.0,71466.5,-18.21,-28.69,-28.31,0,*61
1484406196.04,44054,7.0,71470.5,-18.19,-28.63,-28.31,0,*67
1484406197.3,44055,7.0,71466.0,-18.19,-28.85,-28.43,0,*6B
1484406198.55,44056,7.0,71472.0,-18.19,-28.69,-28.31,0,*6F
1484406199.84,44057,7.0,71474.3,-18.19,-28.63,-28.43,0,*61
1484406201.08,44058,7.0,71470.8,-18.21,-28.69,-28.43,0,*6F
1484406202.35,44059,7.0,71472.8,-18.21,-28.79,-28.47,0,*6B
1484406203.62,44060,7.0,71476.8,-18.19,-28.63,-28.31,0,*60
1484406204.88,44061,7.0,71474.0,-18.21,-28.53,-28.25,0,*6C
1484406206.13,44062,7.0,71474.8,-18.21,-28.53,-28.25,0,*6F
1484406207.37,44063,7.0,71476.3,-18.21,-28.69,-28.43,0,*67
1484406208.62,44064,7.0,71480.3,-18.21,-28.85,-28.63,0,*60
1484406209.89,44065,7.0,71478.0,-18.19,-28.79,-28.53,0,*6A
1484406211.13,44066,7.0,71472.8,-18.21,-28.85,-28.47,0,*64
1484406212.35,44067,7.0,71474.8,-18.21,-28.85,-28.53,0,*60
1484406213.62,44068,7.0,71474.0,-18.21,-28.79,-28.47,0,*69
1484406214.87,44069,7.0,71476.0,-18.21,-28.79,-28.53,0,*6D
1484406216.09,44070,7.0,71476.3,-18.21,-28.85,-28.53,0,*66
1484406217.34,44071,7.0,71476.3,-18.21,-28.85,-28.47,0,*62
1484406218.58,44072,7.0,71478.0,-18.21,-28.79,-28.53,0,*67
1484406219.85,44073,7.0,71478.5,-18.23,-28.75,-28.37,0,*6A
1484406221.14,44074,7.0,71478.3,-18.23,-28.75,-28.47,0,*6A
1484406222.42,44075,7.0,71478.5,-18.23,-28.91,-28.53,0,*64
1484406223.72,44076,7.0,71476.8,-18.23,-28.91,-28.59,0,*6D
1484406225.02,44077,7.0,71478.8,-18.23,-28.91,-28.75,0,*62
1484406226.29,44078,7.0,71478.3,-18.23,-29.01,-28.69,0,*68
1484406227.54,44079,7.0,71478.5,-18.23,-29.07,-28.85,0,*6D
1484406228.84,44080,7.0,71476.3,-18.23,-29.01,-28.91,0,*68
1484406230.11,44081,7.0,71478.0,-18.23,-29.01,-28.69,0,*6E
1484406231.36,44082,7.0,71476.8,-18.27,-28.85,-28.53,0,*6D
1484406232.66,44083,7.0,71478.5,-18.23,-28.91,-28.59,0,*67
1484406233.91,44084,7.0,71482.0,-18.23,-28.85,-28.53,0,*6F
1484406235.18,44085,7.0,71476.8,-18.23,-28.75,-28.53,0,*61
1484406236.43,44086,7.0,71482.0,-18.27,-28.85,-28.53,0,*69
1484406237.73,44087,7.0,71484.3,-18.27,-28.91,-28.59,0,*67
1484406239.01,44088,7.0,71486.3,-18.27,-28.91,-28.53,0,*62
1484406240.31,44089,7.0,71480.3,-18.27,-28.91,-28.59,0,*69
1484406241.56,44090,7.0,71484.0,-18.27,-28.85,-28.53,0,*6E
1484406242.85,44091,7.0,71486.0,-18.27,-28.59,-28.47,0,*6B
1484406244.1,44092,7.0,71486.3,-18.23,-28.69,-28.37,0,*68
1484406245.37,44093,7.0,71486.8,-18.27,-28.69,-28.21,0,*6A
1484406246.62,44094,7.0,71480.0,-18.23,-28.69,-28.37,0,*6E
1484406247.88,44095,7.0,71482.3,-18.27,-28.75,-28.37,0,*66
1484406249.16,44096,7.0,71480.0,-18.27,-28.59,-28.31,0,*6D
1484406250.46,44097,7.0,71484.0,-18.27,-28.59,-28.21,0,*6D
1484406251.76,44098,7.0,71486.0,-18.27,-28.47,-28.21,0,*6D
1484406253.05,44099,7.0,71480.8,-18.27,-28.47,-28.05,0,*6A
1484406254.3,44100,7.0,71480.5,-18.27,-28.53,-28.15,0,*6F
1484406255.56,44101,7.0,71482.5,-18.23,-28.53,-28.15,0,*6A
1484406256.86,44102,7.0,71476.8,-18.27,-28.59,-28.21,0,*60
1484406258.11,44103,7.0,71472.0,-18.27,-28.69,-28.31,0,*63
1484406259.4,44104,7.0,71476.3,-18.27,-28.75,-28.47,0,*68
1484406260.7,44105,7.0,71472.8,-18.23,-28.91,-28.59,0,*68
1484406262.0,44106,7.0,71472.8,-18.27,-29.01,-28.59,0,*67
1484406263.25,44107,7.0,71476.0,-18.27,-29.07,-28.69,0,*63
1484406264.52,44108,7.0,71472.3,-18.27,-29.01,-28.69,0,*6A
1484406265.81,44109,7.0,71474.3,-18.23,-29.01,-28.75,0,*62
1484406267.1,44110,7.0,71474.0,-18.27,-29.17,-28.75,0,*69
1484406268.37,44111,7.0,71472.5,-18.29,-29.13,-28.91,0,*68
1484406269.61,44112,7.0,71470.3,-18.29,-29.07,-28.91,0,*6E
1484406270.85,44113,7.0,71468.0,-18.29,-29.13,-28.97,0,*6C
1484406272.1,44114,7.0,71470.3,-18.29,-29.07,-28.91,0,*68
1484406273.34,44115,7.0,71466.0,-18.29,-29.07,-28.79,0,*6F
1484406274.59,44116,7.0,71466.8,-18.29,-28.97,-28.63,0,*6F
1484406275.86,44117,7.0,71468.8,-18.31,-28.97,-28.63,0,*67
1484406277.12,44118,7.0,71464.8,-18.29,-29.13,-28.79,0,*67
1484406278.41,44119,7.0,71466.5,-18.31,-29.13,-28.91,0,*69
1484406279.65,44120,7.0,71470.5,-18.31,-29.23,-28.97,0,*66
1484406280.87,44121,7.0,71468.8,-18.29,-29.23,-28.97,0,*6E
1484406282.14,44122,7.0,71470.3,-18.31,-29.07,-28.91,0,*64
1484406283.4,44123,7.0,71470.3,-18.31,-29.07,-28.75,0,*6F
1484406284.66,44124,7.0,71472.3,-18.31,-29.07,-28.75,0,*68
1484406285.94,44125,7.0,71472.0,-18.31,-29.07,-28.63,0,*6E
1484406287.2,44126,7.0,71472.5,-18.31,-29.07,-28.79,0,*66
1484406288.47,44127,7.0,71472.5,-18.31,-29.07,-28.63,0,*6C
1484406289.77,44128,7.0,71472.8,-18.31,-28.91,-28.59,0,*64
1484406291.05,44129,7.0,71474.3,-18.31,-28.97,-28.63,0,*6A
1484406292.31,44130,7.0,71472.8,-18.31,-28.97,-28.79,0,*69
1484406293.57,44131,7.0,71478.0,-18.31,-28.97,-28.79,0,*68
1484406294.84,44132,7.0,71478.8,-18.31,-29.07,-28.91,0,*65
1484406296.1,44133,7.0,71478.8,-18.31,-29.07,-28.79,0,*62
1484406297.34,44134,7.0,71476.0,-18.33,-29.07,-28.79,0,*67
1484406298.6,44135,7.0,71476.0,-18.31,-29.07,-28.75,0,*68
1484406299.86,44136,7.0,71478.3,-18.33,-29.13,-28.79,0,*60
1484406301.1,44137,7.0,71480.3,-18.33,-29.01,-28.69,0,*63
1484406302.37,44138,7.0,71482.3,-18.33,-29.01,-28.79,0,*6D
1484406303.66,44139,7.0,71478.0,-18.31,-28.91,-28.75,0,*6A
1484406304.92,44140,7.0,71480.5,-18.31,-28.97,-28.75,0,*62
1484406306.13,44141,7.0,71476.0,-18.33,-28.97,-28.69,0,*6C
1484406307.4,44142,7.0,71482.5,-18.31,-28.97,-28.59,0,*6E
1484406308.65,44143,7.0,71482.0,-18.33,-28.97,-28.63,0,*64
1484406309.92,44144,7.0,71484.5,-18.33,-29.01,-28.63,0,*6D
1484406311.16,44145,7.0,71482.8,-18.33,-28.97,-28.63,0,*62
1484406312.41,44146,7.0,71484.3,-18.33,-28.85,-28.59,0,*6B
1484406313.71,44147,7.0,71484.0,-18.31,-28.59,-28.25,0,*62
1484406314.96,44148,7.0,71486.3,-18.33,-28.59,-28.31,0,*6A
1484406316.23,44149,7.0,71486.5,-18.33,-28.25,-28.05,0,*67
1484406317.49,44150,7.0,71486.0,-18.31,-28.09,-27.93,0,*63
1484406318.76,44151,7.0,71482.3,-18.31,-28.09,-27.77,0,*68
1484406320.03,44152,7.0,71482.0,-18.31,-28.09,-27.71,0,*6D
1484406321.29,44153,7.0,71480.0,-18.31,-28.09,-27.71,0,*6C
1484406322.57,44154,7.0,71478.5,-18.31,-28.25,-27.89,0,*62
1484406323.87,44155,7.0,71478.5,-18.31,-28.21,-28.05,0,*6C
1484406325.14,44156,7.0,71472.3,-18.31,-28.37,-28.21,0,*6E
1484406326.44,44157,7.0,71470.0,-18.31,-28.59,-28.25,0,*63
1484406327.73,44158,7.0,71472.3,-18.31,-28.75,-28.43,0,*62
1484406329.03,44159,7.0,71470.3,-18.31,-28.79,-28.59,0,*64
1484406330.33,44160,7.0,71468.8,-18.31,-28.91,-28.59,0,*68
1484406331.63,44161,7.0,71472.8,-18.31,-28.91,-28.63,0,*60
1484406332.93,44162,7.0,71474.3,-18.31,-28.91,-28.59,0,*6A
1484406334.2,44163,7.0,71476.5,-18.31,-28.79,-28.53,0,*67
1484406335.47,44164,7.0,71476.0,-18.31,-28.97,-28.59,0,*6A
1484406336.72,44165,7.0,71478.8,-18.29,-28.91,-28.53,0,*6E
1484406337.98,44166,7.0,71474.8,-18.33,-28.79,-28.47,0,*65
1484406339.27,44167,7.0,71472.8,-18.31,-28.79,-28.43,0,*62
1484406340.54,44168,7.0,71474.3,-18.31,-28.63,-28.37,0,*65
1484406341.82,44169,7.0,71470.3,-18.31,-28.37,-28.21,0,*62
1484406343.09,44170,7.0,71468.8,-18.33,-28.63,-28.25,0,*6D
1484406344.38,44171,7.0,71472.0,-18.31,-28.63,-28.43,0,*6E
1484406345.65,44172,7.0,71468.8,-18.31,-28.63,-28.37,0,*6E
1484406346.91,44173,7.0,71476.3,-18.33,-28.79,-28.47,0,*61
1484406348.18,44174,7.0,71476.8,-18.33,-28.79,-28.43,0,*62
1484406349.47,44175,7.0,71474.8,-18.31,-28.43,-28.25,0,*68
1484406350.77,44176,7.0,71478.5,-18.31,-28.43,-28.21,0,*6F
1484406352.04,44177,7.0,71474.0,-18.31,-28.37,-28.09,0,*67
1484406353.31,44178,7.0,71468.0,-18.31,-28.25,-27.93,0,*67
1484406354.58,44179,7.0,71472.3,-18.31,-28.21,-27.89,0,*69
1484406355.85,44180,7.0,71476.0,-18.31,-28.09,-27.93,0,*6E
1484406357.14,44181,7.0,71476.3,-18.31,-28.21,-28.05,0,*65
1484406358.41,44182,7.0,71482.3,-18.31,-28.25,-27.93,0,*62
1484406359.68,44183,7.0,71480.8,-18.31,-28.09,-27.93,0,*6D
1484406360.95,44184,7.0,71480.0,-18.31,-28.25,-27.93,0,*64
1484406362.2,44185,7.0,71476.0,-18.29,-28.37,-28.09,0,*63
1484406363.47,44186,7.0,71476.0,-18.29,-28.25,-28.21,0,*69
1484406364.77,44187,7.0,71480.3,-18.31,-28.25,-28.05,0,*67
1484406366.02,44188,7.0,71478.0,-18.29,-28.37,-28.05,0,*62
1484406367.29,44189,6.94,71478.3,-18.29,-28.43,-28.21,0,*66
1484406368.57,44190,7.0,71478.3,-18.31,-28.37,-28.21,0,*64
1484406369.82,44191,7.0,71470.0,-18.29,-28.37,-28.21,0,*6C
1484406371.07,44192,7.0,71462.8,-18.29,-28.53,-28.25,0,*69
1484406372.31,44193,7.0,71466.0,-18.29,-28.59,-28.37,0,*61
1484406373.58,44194,7.0,71464.5,-18.29,-28.75,-28.43,0,*6B
1484406374.84,44195,7.0,71468.8,-18.29,-28.75,-28.43,0,*6A
1484406376.11,44196,7.0,71470.8,-18.29,-28.63,-28.43,0,*6E
1484406377.35,44197,7.0,71470.8,-18.29,-28.75,-28.37,0,*6B
1484406378.63,44198,7.0,71470.3,-18.29,-28.59,-28.25,0,*69
1484406379.92,44199,7.0,71470.0,-18.31,-28.59,-28.25,0,*61
1484406381.2,44200,7.0,71466.5,-18.31,-28.53,-28.25,0,*68
1484406382.45,44201,7.0,71468.5,-18.29,-28.53,-28.21,0,*64
1484406383.69,44202,6.94,71466.8,-18.29,-28.63,-28.37,0,*63
1484406384.94,44203,7.0,71468.5,-18.29,-28.75,-28.53,0,*67
1484406386.19,44204,7.0,71468.5,-18.29,-28.91,-28.53,0,*6A
1484406387.43,44205,7.0,71474.8,-18.29,-28.97,-28.59,0,*67
1484406388.72,44206,7.0,71474.3,-18.31,-28.91,-28.75,0,*65
1484406389.98,44207,7.0,71472.3,-18.31,-28.97,-28.75,0,*62
1484406391.29,44208,7.0,71472.5,-18.31,-28.91,-28.63,0,*6C
1484406392.58,44209,7.0,71472.8,-18.31,-28.91,-28.43,0,*6F
1484406393.85,44210,6.94,71476.3,-18.31,-28.63,-28.37,0,*69
1484406395.12,44211,7.0,71480.3,-18.31,-28.79,-28.53,0,*61
1484406396.39,44212,7.0,71480.5,-18.31,-28.97,-28.59,0,*68
1484406397.66,44213,7.0,71480.0,-18.31,-28.97,-28.59,0,*69
1484406398.93,44214,7.0,71476.3,-18.31,-28.97,-28.63,0,*67
1484406400.21,44215,7.0,71482.0,-18.31,-28.91,-28.53,0,*63
1484406401.5,44216,7.0,71480.5,-18.31,-28.75,-28.43,0,*6B
1484406402.76,44217,7.0,71480.8,-18.31,-28.75,-28.37,0,*69
1484406404.05,44218,6.94,71478.5,-18.31,-28.75,-28.43,0,*65
1484406405.32,44219,7.0,71480.0,-18.31,-28.75,-28.53,0,*65
1484406406.59,44220,7.0,71486.5,-18.29,-28.79,-28.59,0,*60
1484406407.86,44221,7.0,71482.5,-18.31,-28.97,-28.59,0,*68
1484406409.13,44222,7.0,71484.0,-18.31,-28.97,-28.63,0,*62
1484406410.39,44223,7.0,71482.8,-18.31,-28.97,-28.75,0,*64
1484406411.68,44224,7.0,71480.3,-18.31,-29.13,-28.79,0,*62
1484406412.95,44225,7.0,71480.5,-18.29,-29.13,-28.91,0,*6C
1484406414.24,44226,7.0,71482.8,-18.31,-29.13,-28.91,0,*66
1484406415.5,44227,7.0,71482.0,-18.33,-29.29,-29.01,0,*64
1484406416.74,44228,6.94,71476.5,-18.33,-29.17,-28.97,0,*68
1484406418.01,44229,7.0,71478.5,-18.31,-29.07,-28.63,0,*61
1484406419.28,44230,7.0,71476.8,-18.31,-29.07,-28.79,0,*62
1484406420.54,44231,7.0,71478.8,-18.31,-29.07,-28.75,0,*6F
1484406421.84,44232,6.94,71478.5,-18.31,-28.91,-28.59,0,*6C
1484406423.13,44233,7.0,71482.3,-18.31,-28.75,-28.43,0,*6C
1484406424.43,44234,7.0,71478.3,-18.31,-28.63,-28.25,0,*6C
1484406425.69,44235,7.0,71476.5,-18.31,-28.75,-28.37,0,*69
1484406426.96,44236,6.94,71476.3,-18.31,-28.75,-28.37,0,*6A
1484406428.25,44237,7.0,71480.0,-18.31,-28.79,-28.59,0,*6F
1484406429.55,44238,7.0,71480.0,-18.31,-28.91,-28.59,0,*66
1484406430.83,44239,7.0,71478.0,-18.31,-29.07,-28.63,0,*60
1484406432.06,44240,7.0,71480.0,-18.33,-29.13,-28.97,0,*62
1484406433.3,44241,6.94,71478.0,-18.33,-29.13,-28.85,0,*60
1484406434.57,44242,7.0,71478.3,-18.33,-29.01,-28.79,0,*63
1484406435.81,44243,7.0,71480.3,-18.33,-28.97,-28.59,0,*6E
1484406437.07,44244,7.0,71480.8,-18.33,-28.63,-28.43,0,*69
1484406438.34,44245,7.0,71482.5,-18.33,-28.47,-28.25,0,*6E
1484406439.61,44246,7.0,71486.3,-18.33,-28.59,-28.25,0,*62
1484406440.88,44247,7.0,71482.0,-18.31,-28.59,-28.37,0,*62
1484406442.17,44248,7.0,71484.8,-18.31,-28.59,-28.25,0,*6E
1484406443.44,44249,7.0,71484.5,-18.31,-28.53,-28.09,0,*6B
1484406444.74,44250,7.0,71482.8,-18.31,-28.43,-28.09,0,*62
1484406446.01,44251,7.0,71480.8,-18.31,-28.37,-28.09,0,*60
1484406447.3,44252,7.0,71482.3,-18.31,-28.09,-28.05,0,*62
1484406448.57,44253,7.0,71478.3,-18.31,-28.37,-28.09,0,*62
1484406449.87,44254,7.0,71472.8,-18.31,-28.21,-28.09,0,*62
1484406451.14,44255,7.0,71478.5,-18.31,-28.09,-27.93,0,*65
1484406452.41,44256,7.0,71476.8,-18.31,-28.05,-27.89,0,*61
1484406453.65,44257,7.0,71474.0,-18.31,-27.93,-27.71,0,*67
1484406454.92,44258,7.0,71478.0,-18.31,-28.05,-27.71,0,*68
1484406456.2,44259,7.0,71476.3,-18.29,-28.05,-27.61,0,*61
1484406457.44,44260,7.0,71478.5,-18.29,-28.05,-27.71,0,*6A
1484406458.69,44261,7.0,71476.3,-18.29,-28.09,-27.89,0,*60
1484406459.96,44262,7.0,71472.5,-18.31,-28.21,-27.93,0,*6B
1484406461.2,44263,7.0,71474.5,-18.29,-28.21,-27.93,0,*63
1484406462.45,44264,7.0,71474.8,-18.29,-28.09,-27.89,0,*65
1484406463.67,44265,7.0,71474.3,-18.29,-27.93,-27.71,0,*6F
1484406464.94,44266,6.94,71472.3,-18.27,-27.99,-27.67,0,*6F
1484406466.24,44267,7.0,71474.5,-18.23,-28.05,-27.83,0,*6A
1484406467.51,44268,6.94,71470.5,-18.23,-28.15,-27.99,0,*6F
1484406468.76,44269,7.0,71472.3,-18.27,-28.15,-27.89,0,*6B
1484406470.03,44270,7.0,71470.8,-18.27,-28.05,-27.89,0,*62
1484406471.31,44271,7.0,71470.3,-18.27,-28.21,-27.89,0,*65
1484406472.58,44272,6.94,71468.5,-18.23,-28.21,-28.15,0,*68
1484406473.89,44273,6.94,71466.5,-18.23,-28.21,-27.99,0,*62
1484406475.19,44274,7.0,71474.8,-18.23,-28.21,-27.99,0,*65
1484406476.46,44275,6.94,71470.5,-18.23,-28.15,-27.83,0,*68
1484406477.76,44276,6.94,71470.5,-18.23,-28.05,-27.83,0,*6A
1484406479.03,44277,6.94,71464.3,-18.27,-28.05,-27.89,0,*65
1484406480.31,44278,7.0,71464.8,-18.23,-28.05,-27.71,0,*69
1484406481.58,44279,6.94,71466.0,-18.23,-28.05,-27.71,0,*68
1484406482.83,44280,7.0,71470.3,-18.23,-27.89,-27.67,0,*62
1484406484.07,44281,6.94,71464.5,-18.21,-27.83,-27.51,0,*6E
1484406485.36,44282,7.0,71464.0,-18.19,-27.83,-27.61,0,*65
1484406486.6,44283,7.0,71462.3,-18.19,-27.77,-27.51,0,*6C
1484406487.86,44284,7.0,71460.3,-18.19,-27.77,-27.45,0,*6E
1484406489.12,44285,7.0,71462.0,-18.19,-27.83,-27.51,0,*61
1484406490.36,44286,7.0,71462.0,-18.19,-27.93,-27.51,0,*63
1484406491.58,44287,7.0,71458.8,-18.17,-27.93,-27.67,0,*69
1484406492.79,44288,7.0,71458.3,-18.17,-27.93,-27.77,0,*67
1484406494.03,44289,7.0,71450.5,-18.17,-27.99,-27.67,0,*6D
1484406495.27,44290,7.0,71452.5,-18.17,-27.93,-27.61,0,*69
1484406496.53,44291,7.0,71458.5,-18.15,-28.09,-27.77,0,*61
1484406497.8,44292,7.0,71460.8,-18.15,-28.09,-27.89,0,*63
1484406499.07,44293,7.0,71464.0,-18.15,-28.21,-27.89,0,*68
1484406500.31,44294,7.0,71466.3,-18.17,-28.09,-27.93,0,*6C
1484406501.58,44295,7.0,71468.5,-18.15,-28.09,-27.89,0,*64
1484406502.82,44296,6.94,71468.5,-18.17,-28.31,-27.99,0,*6F
1484406504.12,44297,7.0,71470.0,-18.15,-28.25,-28.05,0,*63
1484406505.38,44298,7.0,71474.3,-18.15,-28.09,-27.77,0,*68
1484406506.65,44299,7.0,71478.0,-18.15,-28.09,-27.77,0,*69
1484406507.91,44300,6.94,71468.3,-18.15,-28.09,-27.93,0,*62
1484406509.18,44301,7.0,71472.5,-18.15,-28.21,-27.93,0,*69
1484406510.48,44302,7.0,71476.8,-18.15,-28.43,-28.05,0,*6E
1484406511.73,44303,7.0,71474.5,-18.11,-28.43,-28.15,0,*6A
1484406512.97,44304,7.0,71476.0,-18.11,-28.59,-28.31,0,*60
1484406514.22,44305,7.0,71476.0,-18.11,-28.69,-28.43,0,*67